AI5YA-13 Weather Reports


Display with metric or nautical units.
time (UTC)temp
F
wind
direction
speed
MPH
gust
MPH
rain 1hr
in
rain 24hr
in
rain mn
in
humidity
%
barometer
mb
20260506015704 73 4 0.0 0.0 0.00 0.00 0.00 38 1009.2
20260506015201 73 5 0.0 0.0 0.00 0.00 0.00 39 1009.2
20260506014658 73 302 0.0 0.0 0.00 0.00 0.00 38 1009.0
20260506014154 74 282 0.0 0.0 0.00 0.00 0.00 37 1009.1
20260506013652 74 287 0.0 0.0 0.00 0.00 0.00 37 1009.1
20260506013149 74 309 0.0 0.0 0.00 0.00 0.00 37 1009.0
20260506012645 75 2 0.0 0.0 0.00 0.00 0.00 36 1009.1
20260506012142 75 273 0.0 0.0 0.00 0.00 0.00 35 1009.1
20260506011639 75 358 0.0 0.0 0.00 0.00 0.00 35 1009.0
20260506011135 76 303 0.0 0.0 0.00 0.00 0.00 34 1009.1
20260506010635 77 340 0.0 0.0 0.00 0.00 0.00 33 1009.0
20260506010131 77 277 0.0 0.0 0.00 0.00 0.00 32 1009.0
20260506005628 77 300 0.0 0.0 0.00 0.00 0.00 32 1008.8
20260506005124 78 270 0.0 0.0 0.00 0.00 0.00 33 1008.9
20260506004621 77 236 0.0 0.0 0.00 0.00 0.00 33 1009.0
20260506004118 78 274 0.0 0.0 0.00 0.00 0.00 32 1008.9
20260506003615 78 262 0.0 0.0 0.00 0.00 0.00 32 1009.0
20260506003111 78 257 0.0 0.0 0.00 0.00 0.00 31 1009.0
20260506002607 79 275 0.0 0.0 0.00 0.00 0.00 32 1009.0
20260506002103 78 270 0.0 0.0 0.00 0.00 0.00 32 1009.0
20260506001559 77 289 0.0 0.0 0.00 0.00 0.00 33 1009.0
20260506001056 77 252 0.0 0.0 0.00 0.00 0.00 33 1009.3
20260506000554 77 274 0.0 0.0 0.00 0.00 0.00 33 1009.3
20260506000051 76 305 0.0 0.0 0.00 0.00 0.00 33 1009.6
20260505235549 76 261 0.0 0.0 0.00 0.00 0.00 33 1009.6
20260505235046 77 260 0.0 0.0 0.00 0.00 0.00 32 1009.5
20260505234543 77 274 0.0 0.0 0.00 0.00 0.00 32 1009.2
20260505234039 77 244 0.0 0.0 0.00 0.00 0.00 32 1009.3
20260505233537 77 290 0.0 0.0 0.00 0.00 0.00 31 1009.3
20260505233034 77 246 0.0 0.0 0.00 0.00 0.00 31 1009.2
20260505232532 77 330 0.0 0.0 0.00 0.00 0.00 31 1009.5
20260505232029 77 266 0.0 0.0 0.00 0.00 0.00 31 1009.8
20260505231526 77 280 0.0 0.0 0.00 0.00 0.00 30 1009.3
20260505231025 77 260 0.0 0.0 0.00 0.00 0.00 30 1009.1
20260505230522 78 268 0.0 0.0 0.00 0.00 0.00 30 1008.9
20260505230018 78 330 0.0 0.0 0.00 0.00 0.00 30 1009.1
20260505225515 78 277 0.0 0.0 0.00 0.00 0.00 29 1009.1
20260505225011 78 335 0.0 0.0 0.00 0.00 0.00 30 1009.1
20260505224508 78 265 0.0 0.0 0.00 0.00 0.00 30 1009.2
20260505224005 78 256 0.0 0.0 0.00 0.00 0.00 30 1009.1
20260505223502 78 280 0.0 0.0 0.00 0.00 0.00 31 1009.1
20260505222958 78 259 0.0 0.0 0.00 0.00 0.00 31 1009.3
20260505222455 78 243 0.0 0.0 0.00 0.00 0.00 31 1009.0
20260505221950 78 232 0.0 0.0 0.00 0.00 0.00 31 1009.1
20260505221448 78 267 0.0 0.0 0.00 0.00 0.00 31 1009.0
20260505220945 78 245 0.0 0.0 0.00 0.00 0.00 30 1009.1
20260505220442 78 243 0.0 0.0 0.00 0.00 0.00 29 1009.1
20260505215940 79 291 0.0 0.0 0.00 0.00 0.00 28 1009.1
20260505215438 79 280 0.0 0.0 0.00 0.00 0.00 28 1009.1
20260505214935 79 273 0.0 0.0 0.00 0.00 0.00 28 1009.2
20260505214433 79 271 0.0 0.0 0.00 0.00 0.00 28 1009.7
20260505213930 79 253 0.0 0.0 0.00 0.00 0.00 28 1009.6
20260505213428 80 258 0.0 0.0 0.00 0.00 0.00 27 1009.5
20260505212924 80 237 0.0 0.0 0.00 0.00 0.00 28 1009.3
20260505212421 80 254 0.0 0.0 0.00 0.00 0.00 28 1009.2
20260505211917 80 214 0.0 0.0 0.00 0.00 0.00 27 1009.2
20260505211415 80 260 0.0 0.0 0.00 0.00 0.00 27 1009.7
20260505210911 80 268 0.0 0.0 0.00 0.00 0.00 28 1009.7
20260505210408 80 276 0.0 0.0 0.00 0.00 0.00 28 1009.9
20260505205905 80 259 0.0 0.0 0.00 0.00 0.00 28 1009.8
20260505205403 80 284 0.0 0.0 0.00 0.00 0.00 28 1009.7
20260505204900 79 358 0.0 0.0 0.00 0.00 0.00 29 1009.7
20260505204357 80 330 0.0 0.0 0.00 0.00 0.00 28 1009.8
20260505203855 79 292 0.0 0.0 0.00 0.00 0.00 29 1009.6
20260505203351 79 257 0.0 0.0 0.00 0.00 0.00 29 1009.9
20260505202847 79 296 0.0 0.0 0.00 0.00 0.00 29 1009.9
20260505202344 79 269 0.0 0.0 0.00 0.00 0.00 29 1009.9
20260505201840 79 305 0.0 0.0 0.00 0.00 0.00 29 1009.9
20260505201338 78 300 0.0 0.0 0.00 0.00 0.00 29 1010.3
20260505200836 79 288 0.0 0.0 0.00 0.00 0.00 28 1010.0
20260505200332 79 303 0.0 0.0 0.00 0.00 0.00 28 1010.2
20260505195828 79 288 0.0 0.0 0.00 0.00 0.00 27 1009.8
20260505195325 79 332 0.0 0.0 0.00 0.00 0.00 27 1009.9
20260505194822 79 254 0.0 0.0 0.00 0.00 0.00 25 1010.1
20260505194320 79 237 0.0 0.0 0.00 0.00 0.00 26 1010.1
20260505193815 80 252 0.0 0.0 0.00 0.00 0.00 27 1010.1
20260505193313 80 324 0.0 0.0 0.00 0.00 0.00 26 1010.1
20260505192811 80 301 0.0 0.0 0.00 0.00 0.00 26 1010.2
20260505192310 80 249 0.0 0.0 0.00 0.00 0.00 26 1010.1
20260505191806 79 308 0.0 0.0 0.00 0.00 0.00 26 1010.1
20260505191304 79 265 0.0 0.0 0.00 0.00 0.00 27 1010.2
20260505190800 80 265 0.0 0.0 0.00 0.00 0.00 26 1010.2
20260505190256 80 275 0.0 0.0 0.00 0.00 0.00 26 1010.3
20260505185752 80 288 0.0 0.0 0.00 0.00 0.00 28 1010.6
20260505185249 79 312 0.0 0.0 0.00 0.00 0.00 28 1010.3
20260505184745 79 288 0.0 1.0 0.00 0.00 0.00 27 1010.7
20260505184242 79 309 0.0 0.0 0.00 0.00 0.00 27 1010.2
20260505183739 80 260 0.0 1.0 0.00 0.00 0.00 26 1010.2
20260505183236 80 288 0.0 0.0 0.00 0.00 0.00 26 1010.6
20260505182733 80 253 0.0 0.0 0.00 0.00 0.00 27 1010.4
20260505182229 80 298 0.0 0.0 0.00 0.00 0.00 27 1010.2
20260505181726 79 295 0.0 0.0 0.00 0.00 0.00 28 1010.3
20260505181224 79 317 0.0 0.0 0.00 0.00 0.00 27 1010.4
20260505180720 79 294 0.0 0.0 0.00 0.00 0.00 27 1010.6
20260505180217 80 289 0.0 0.0 0.00 0.00 0.00 27 1010.6
20260505175713 81 294 0.0 0.0 0.00 0.00 0.00 26 1010.8
20260505175209 81 328 0.0 0.0 0.00 0.00 0.00 27 1010.8
20260505174706 81 347 0.0 0.0 0.00 0.00 0.00 27 1010.4
20260505174203 80 261 0.0 0.0 0.00 0.00 0.00 27 1010.7
20260505173659 81 340 0.0 0.0 0.00 0.00 0.00 26 1010.7
20260505173156 80 258 0.0 0.0 0.00 0.00 0.00 27 1010.7
20260505172653 80 297 0.0 0.0 0.00 0.00 0.00 27 1010.8
20260505172150 80 277 0.0 0.0 0.00 0.00 0.00 26 1010.6
20260505171649 80 292 0.0 0.0 0.00 0.00 0.00 27 1010.4
20260505171147 79 281 0.0 0.0 0.00 0.00 0.00 27 1010.4
20260505170644 80 301 0.0 0.0 0.00 0.00 0.00 27 1010.8
20260505170141 80 329 0.0 0.0 0.00 0.00 0.00 27 1010.7
20260505165641 79 330 0.0 0.0 0.00 0.00 0.00 27 1010.7
20260505165137 79 309 0.0 0.0 0.00 0.00 0.00 27 1010.7
20260505164632 79 302 0.0 0.0 0.00 0.00 0.00 27 1010.7
20260505164130 79 245 0.0 0.0 0.00 0.00 0.00 26 1010.7
20260505163628 79 275 0.0 0.0 0.00 0.00 0.00 27 1010.7
20260505163126 80 313 0.0 0.0 0.00 0.00 0.00 26 1010.7
20260505162623 79 261 0.0 0.0 0.00 0.00 0.00 26 1010.8
20260505162121 79 304 0.0 0.0 0.00 0.00 0.00 26 1010.4
20260505161618 78 275 0.0 0.0 0.00 0.00 0.00 26 1010.3
20260505161115 78 299 0.0 0.0 0.00 0.00 0.00 27 1010.6
20260505160613 78 1 0.0 0.0 0.00 0.00 0.00 27 1010.4
20260505160110 78 240 0.0 0.0 0.00 0.00 0.00 27 1010.4
20260505153049 78 317 0.0 0.0 0.00 0.00 0.00 27 1010.0
20260505152546 78 305 0.0 0.0 0.00 0.00 0.00 27 1010.2
20260505152042 78 9 0.0 0.0 0.00 0.00 0.00 27 1010.0
20260505151537 78 346 0.0 0.0 0.00 0.00 0.00 27 1010.0
20260505151035 79 327 0.0 0.0 0.00 0.00 0.00 26 1010.1
20260505150531 79 284 0.0 0.0 0.00 0.00 0.00 28 1010.3
20260505140456 72 288 0.0 0.0 0.00 0.00 0.00 36 1009.8
20260505124909 66 219 0.0 0.0 0.00 0.00 0.00 49 1009.0
20260505124406 66 224 0.0 0.0 0.00 0.00 0.00 48 1008.9
20260505123902 66 233 0.0 0.0 0.00 0.00 0.00 46 1008.6
20260505123359 66 232 0.0 0.0 0.00 0.00 0.00 47 1008.7
20260505122855 66 231 0.0 0.0 0.00 0.00 0.00 47 1008.7
20260505122352 66 231 0.0 0.0 0.00 0.00 0.00 47 1008.5
20260505121849 66 231 0.0 0.0 0.00 0.00 0.00 48 1008.6
20260505121346 65 230 0.0 0.0 0.00 0.00 0.00 50 1008.5
20260505120842 64 222 0.0 0.0 0.00 0.00 0.00 54 1008.5
20260505120338 64 224 0.0 0.0 0.00 0.00 0.00 56 1008.4
20260505115837 62 231 0.0 0.0 0.00 0.00 0.00 60 1008.5
20260505115334 61 224 0.0 0.0 0.00 0.00 0.00 66 1008.4
20260505114832 61 230 0.0 0.0 0.00 0.00 0.00 66 1008.4
20260505114328 61 222 0.0 0.0 0.00 0.00 0.00 64 1008.0
20260505113825 60 225 0.0 0.0 0.00 0.00 0.00 64 1008.3
20260505113321 60 223 0.0 0.0 0.00 0.00 0.00 65 1008.1
20260505112817 60 224 0.0 0.0 0.00 0.00 0.00 65 1008.1
20260505112315 61 225 0.0 0.0 0.00 0.00 0.00 63 1007.9
20260505111810 62 226 0.0 0.0 0.00 0.00 0.00 61 1007.9
20260505111306 61 230 0.0 0.0 0.00 0.00 0.00 59 1008.1
20260505110756 61 230 0.0 0.0 0.00 0.00 0.00 61 1008.1
20260505110255 61 230 0.0 0.0 0.00 0.00 0.00 62 1008.0
20260505101728 65 225 0.0 0.0 0.00 0.00 0.00 54 1008.1
20260505101224 65 248 0.0 0.0 0.00 0.00 0.00 55 1008.1
20260505100721 65 263 0.0 0.0 0.00 0.00 0.00 57 1007.8
20260505100218 65 278 0.0 0.0 0.00 0.00 0.00 57 1007.8
20260505095713 65 232 0.0 0.0 0.00 0.00 0.00 56 1007.7
20260505095212 65 230 0.0 0.0 0.00 0.00 0.00 53 1007.7
20260505094707 64 215 0.0 0.0 0.00 0.00 0.00 52 1008.0
20260505094203 63 245 0.0 0.0 0.00 0.00 0.00 53 1008.0
20260505093700 64 215 0.0 0.0 0.00 0.00 0.00 52 1007.7
20260505093157 64 236 0.0 0.0 0.00 0.00 0.00 50 1007.5
20260505092654 64 271 0.0 0.0 0.00 0.00 0.00 50 1007.9
20260505092153 64 273 0.0 0.0 0.00 0.00 0.00 52 1007.9
20260505091649 64 248 0.0 0.0 0.00 0.00 0.00 52 1007.7
20260505091147 64 163 0.0 0.0 0.00 0.00 0.00 53 1007.6
20260505090644 63 223 0.0 0.0 0.00 0.00 0.00 53 1007.7
20260505090143 64 139 0.0 0.0 0.00 0.00 0.00 53 1007.8
20260505085640 64 239 0.0 0.0 0.00 0.00 0.00 51 1007.9
20260505085138 64 259 0.0 0.0 0.00 0.00 0.00 50 1007.8
20260505084635 65 220 0.0 0.0 0.00 0.00 0.00 49 1008.0
20260505084134 65 189 0.0 0.0 0.00 0.00 0.00 48 1008.0
20260505083631 66 270 0.0 0.0 0.00 0.00 0.00 48 1008.0
20260505083127 66 270 0.0 0.0 0.00 0.00 0.00 47 1008.0
20260505082623 66 269 0.0 0.0 0.00 0.00 0.00 47 1007.9
20260505082120 66 233 0.0 0.0 0.00 0.00 0.00 46 1008.0
20260505081616 65 213 0.0 0.0 0.00 0.00 0.00 46 1007.9
20260505081114 64 229 0.0 0.0 0.00 0.00 0.00 48 1008.1
20260505080610 63 233 0.0 0.0 0.00 0.00 0.00 49 1008.0
20260505080107 64 224 0.0 0.0 0.00 0.00 0.00 49 1008.0
20260505075603 65 221 0.0 0.0 0.00 0.00 0.00 47 1008.1
20260505075059 65 226 0.0 0.0 0.00 0.00 0.00 44 1008.0
20260505074556 66 227 0.0 0.0 0.00 0.00 0.00 43 1008.1
20260505074054 66 211 0.0 0.0 0.00 0.00 0.00 42 1008.0
20260505073551 65 176 0.0 0.0 0.00 0.00 0.00 43 1008.0
20260505073049 65 191 0.0 0.0 0.00 0.00 0.00 44 1008.3
20260505072544 66 220 0.0 0.0 0.00 0.00 0.00 43 1008.0
20260505072041 65 212 0.0 0.0 0.00 0.00 0.00 44 1008.1
20260505071536 66 229 0.0 0.0 0.00 0.00 0.00 44 1007.9
20260505071035 66 223 0.0 0.0 0.00 0.00 0.00 44 1008.3
20260505070532 66 221 0.0 0.0 0.00 0.00 0.00 43 1008.3
20260505070028 67 209 0.0 0.0 0.00 0.00 0.00 42 1008.1
20260505065524 67 187 0.0 0.0 0.00 0.00 0.00 41 1008.0
20260505065020 68 274 0.0 0.0 0.00 0.00 0.00 41 1008.3
20260505064517 68 277 0.0 0.0 0.00 0.00 0.00 40 1008.5
20260505064016 68 221 0.0 0.0 0.00 0.00 0.00 39 1008.4
20260505063513 69 246 0.0 0.0 0.00 0.00 0.00 38 1008.3
20260505063008 70 256 0.0 0.0 0.00 0.00 0.00 37 1008.3
20260505062505 70 257 0.0 0.0 0.00 0.00 0.00 36 1008.3
20260505062003 70 262 0.0 0.0 0.00 0.00 0.00 36 1008.5
20260505061500 70 318 0.0 0.0 0.00 0.00 0.00 35 1008.4
20260505060957 71 297 0.0 0.0 0.00 0.00 0.00 35 1008.3
20260505060455 71 232 0.0 0.0 0.00 0.00 0.00 34 1008.5
20260505055951 71 233 0.0 0.0 0.00 0.00 0.00 34 1008.5
20260505055447 72 255 0.0 0.0 0.00 0.00 0.00 34 1008.5
20260505054944 72 279 0.0 0.0 0.00 0.00 0.00 33 1008.7
20260505054441 71 256 0.0 0.0 0.00 0.00 0.00 34 1008.7
20260505053939 71 281 0.0 0.0 0.00 0.00 0.00 34 1008.8
20260505053436 71 237 0.0 0.0 0.00 0.00 0.00 35 1008.9
20260505052932 71 232 0.0 0.0 0.00 0.00 0.00 36 1008.8
20260505052429 71 325 0.0 0.0 0.00 0.00 0.00 36 1008.9
20260505051927 71 250 0.0 0.0 0.00 0.00 0.00 36 1009.1
20260505051424 71 266 0.0 0.0 0.00 0.00 0.00 35 1008.9
20260505050922 71 291 0.0 0.0 0.00 0.00 0.00 35 1009.2
20260505050420 71 278 0.0 0.0 0.00 0.00 0.00 35 1009.0
20260505041347 72 338 0.0 0.0 0.00 0.00 0.00 34 1008.9
20260505040844 73 286 0.0 0.0 0.00 0.00 0.00 33 1009.0
20260505040342 73 343 0.0 0.0 0.00 0.00 0.00 32 1008.9
20260505035838 73 343 0.0 0.0 0.00 0.00 0.00 32 1008.9
20260505035334 73 337 0.0 0.0 0.00 0.00 0.00 32 1008.8
20260505034832 72 0 0.0 0.0 0.00 0.00 0.00 33 1008.7
20260505034328 72 316 0.0 0.0 0.00 0.00 0.00 34 1009.0
20260505033826 72 280 0.0 0.0 0.00 0.00 0.00 35 1008.7
20260505033322 73 282 0.0 0.0 0.00 0.00 0.00 33 1008.8
20260505032821 74 22 0.0 0.0 0.00 0.00 0.00 31 1008.7
20260505032316 75 353 0.0 0.0 0.00 0.00 0.00 29 1008.4
20260505031814 75 350 0.0 0.0 0.00 0.00 0.00 29 1008.7
20260505031310 75 0 0.0 0.0 0.00 0.00 0.00 28 1008.6
20260505030808 76 306 0.0 0.0 0.00 0.00 0.00 27 1008.8
20260505030304 76 308 0.0 0.0 0.00 0.00 0.00 28 1008.7
20260505025759 76 308 0.0 0.0 0.00 0.00 0.00 27 1008.5
20260505025257 76 303 0.0 0.0 0.00 0.00 0.00 28 1008.4
20260505024755 76 281 0.0 0.0 0.00 0.00 0.00 27 1008.1
20260505024252 76 262 0.0 0.0 0.00 0.00 0.00 27 1008.4
20260505023749 76 289 0.0 0.0 0.00 0.00 0.00 27 1008.0
20260505023246 77 254 0.0 0.0 0.00 0.00 0.00 27 1008.1
20260505022744 77 289 0.0 0.0 0.00 0.00 0.00 26 1008.0
20260505022241 77 263 0.0 0.0 0.00 0.00 0.00 26 1008.0
20260505021737 78 273 0.0 0.0 0.00 0.00 0.00 26 1008.1
20260505021234 78 238 0.0 0.0 0.00 0.00 0.00 25 1007.8
20260505020730 78 246 0.0 0.0 0.00 0.00 0.00 24 1007.8
20260505020225 79 267 0.0 0.0 0.00 0.00 0.00 24 1007.7
20260505015723 79 233 0.0 0.0 0.00 0.00 0.00 24 1007.9